This is the latest recevied weather packets stored in our database for station/object LU4EGV-13. If no packets are shown the sender has not sent any weather packets the latest 10 day(s).
| Time | Temp. | Humidity | Pressure | Rain* | Wind** | Luminosity | Snow |
|---|---|---|---|---|---|---|---|
| 1788316732 | 12.78° C | 92% | 1017 hPa | 0 mm | - | - | - |
| 1788316128 | 12.78° C | 92% | 1017.3 hPa | 0 mm | - | - | - |
| 1788315519 | 12.78° C | 92% | 1017.3 hPa | 0 mm | - | - | - |
| 1788314914 | 12.78° C | 92% | 1017.6 hPa | 0 mm | - | - | - |
| 1788314708 | 10.56° C | 97% | 1015.9 hPa | - | - | - | - |
| 1788314704 | 12.78° C | 89% | 1017.7 hPa | 0 mm | - | - | - |
| 1788314700 | 12.78° C | 89% | 1017.7 hPa | 0 mm | - | - | - |
| 1788314696 | 12.78° C | 88% | 1017.5 hPa | 0 mm | - | - | - |
| 1788314692 | 12.78° C | 88% | 1017.4 hPa | 0 mm | - | - | - |
| 1788314688 | 13.33° C | 87% | 1017.3 hPa | 0 mm | - | - | - |
| 1788314684 | 13.33° C | 86% | 1017.5 hPa | 0 mm | - | - | - |
| 1788314680 | 13.33° C | 85% | 1017.5 hPa | 0 mm | - | - | - |
| 1788314676 | 13.33° C | 84% | 1017.6 hPa | 0 mm | - | - | - |
| 1788314672 | 13.33° C | 83% | 1017.7 hPa | 0 mm | - | - | - |
| 1788314668 | 13.89° C | 83% | 1017.7 hPa | 0 mm | - | - | - |
| 1788314664 | 13.89° C | 82% | 1017.5 hPa | 0 mm | - | - | - |
| 1788314660 | 13.89° C | 78% | 1017.6 hPa | 0 mm | - | - | - |
| 1788314656 | 14.44° C | 77% | 1017.6 hPa | 0 mm | - | - | - |
| 1788314652 | 14.44° C | 76% | 1017.5 hPa | 0 mm | - | - | - |
| 1788314648 | 15° C | 74% | 1017.5 hPa | 0 mm | - | - | - |
| 1788314644 | 15.56° C | 73% | 1017.3 hPa | 0 mm | - | - | - |
| 1788314640 | 15.56° C | 72% | 1017.4 hPa | 0 mm | - | - | - |
| 1788314636 | 16.11° C | 70% | 1017.3 hPa | 0 mm | - | - | - |
| 1788314632 | 16.67° C | 68% | 1017.1 hPa | 0 mm | - | - | - |
| 1788314628 | 17.78° C | 63% | 1017.3 hPa | 0 mm | - | - | - |
* Rain latest hour (hover to see other rain measurements)
** Current wind speed in m/s (hover to see current wind gust speed)